DAL1894 KATL-TNCM

Flight info

Callsign DAL1894
Flight time N/A
Altitude 37000
Route GAIRY2 IRQ DCT DEDDY AR12 JAINS/M078F370 L451 LETON/N0452F370 L451 IORIO Y356 CERDA Y439 FIPEK Y355 SLUGO DCT
Aircraft A321/M-V/N

Departure

Time 2026-05-05 16:47
Airport Hartsfield Jackson Atlanta International Airport (KATL)

Arrival

Time N/A
Airport Princess Juliana International Airport (TNCM)
Time Latitude Longitude Altitude Speed Heading
2026-05-05 16:11 33.64187 -84.42631 1007 ft 0 kts 90°
2026-05-05 16:28 33.64187 -84.42638 1006 ft 3 kts 90°
2026-05-05 16:29 33.64187 -84.42661 1006 ft 3 kts 90°
2026-05-05 16:29 33.64188 -84.42683 1006 ft 3 kts 90°
2026-05-05 16:29 33.64188 -84.42706 1006 ft 3 kts 120°
2026-05-05 16:29 33.64202 -84.42721 1006 ft 2 kts 181°
2026-05-05 16:30 33.64204 -84.42721 1006 ft 0 kts 181°
2026-05-05 16:32 33.64178 -84.42726 1006 ft 5 kts 191°
2026-05-05 16:32 33.64147 -84.42732 1006 ft 4 kts 184°
2026-05-05 16:32 33.64116 -84.42733 1006 ft 5 kts 182°
2026-05-05 16:33 33.64084 -84.42733 1006 ft 5 kts 180°
2026-05-05 16:33 33.64046 -84.42734 1006 ft 6 kts 180°
2026-05-05 16:33 33.63995 -84.42733 1006 ft 8 kts 179°
2026-05-05 16:33 33.63935 -84.42733 1006 ft 9 kts 180°
2026-05-05 16:34 33.63878 -84.42734 1006 ft 7 kts 180°
2026-05-05 16:34 33.63837 -84.42733 1006 ft 5 kts 180°
2026-05-05 16:34 33.63811 -84.42734 1006 ft 4 kts 181°
2026-05-05 16:34 33.63778 -84.42734 1006 ft 6 kts 179°
2026-05-05 16:35 33.63708 -84.42732 1006 ft 12 kts 178°
2026-05-05 16:35 33.63658 -84.42672 1007 ft 11 kts 101°
2026-05-05 16:35 33.63654 -84.42593 1007 ft 9 kts 87°
2026-05-05 16:35 33.63656 -84.42517 1007 ft 10 kts 90°
2026-05-05 16:36 33.63655 -84.42413 1007 ft 15 kts 91°
2026-05-05 16:36 33.63655 -84.42263 1007 ft 19 kts 89°
2026-05-05 16:36 33.63657 -84.42110 1007 ft 18 kts 89°
2026-05-05 16:36 33.63655 -84.41965 1006 ft 17 kts 90°
2026-05-05 16:37 33.63655 -84.41829 1006 ft 16 kts 90°
2026-05-05 16:37 33.63654 -84.41704 1006 ft 14 kts 91°
2026-05-05 16:37 33.63655 -84.41588 1006 ft 13 kts 90°
2026-05-05 16:37 33.63655 -84.41478 1006 ft 14 kts 89°
2026-05-05 16:38 33.63655 -84.41353 1006 ft 16 kts 90°
2026-05-05 16:38 33.63655 -84.41213 1006 ft 18 kts 90°
2026-05-05 16:38 33.63655 -84.41066 1006 ft 17 kts 90°
2026-05-05 16:38 33.63655 -84.40927 1006 ft 16 kts 90°
2026-05-05 16:39 33.63654 -84.40800 1007 ft 14 kts 97°
2026-05-05 16:39 33.63652 -84.40788 1007 ft 14 kts 102°
2026-05-05 16:39 33.63647 -84.40771 1007 ft 9 kts 111°
2026-05-05 16:39 33.63608 -84.40745 1007 ft 5 kts 173°
2026-05-05 16:40 33.63592 -84.40744 1007 ft 0 kts 176°
2026-05-05 16:45 33.63590 -84.40744 1007 ft 2 kts 176°
2026-05-05 16:45 33.63570 -84.40742 1007 ft 3 kts 178°
2026-05-05 16:46 33.63550 -84.40742 1007 ft 3 kts 179°
2026-05-05 16:46 33.63519 -84.40742 1007 ft 5 kts 181°
2026-05-05 16:46 33.63484 -84.40765 1007 ft 7 kts 236°
2026-05-05 16:46 33.63473 -84.40847 1007 ft 13 kts 269°
2026-05-05 16:47 33.63471 -84.41083 1006 ft 64 kts 269°
2026-05-05 16:47 33.63469 -84.41958 1008 ft 141 kts 270°
2026-05-05 16:47 33.63451 -84.43312 1291 ft 178 kts 266°
2026-05-05 16:47 33.63457 -84.44860 1880 ft 184 kts 268°
2026-05-05 16:48 33.63440 -84.46468 2085 ft 208 kts 265°
2026-05-05 16:48 33.63125 -84.48227 2336 ft 227 kts 241°
2026-05-05 16:48 33.62378 -84.50001 2649 ft 248 kts 240°
2026-05-05 16:48 33.61576 -84.51878 3367 ft 255 kts 240°
2026-05-05 16:49 33.60770 -84.53780 4255 ft 255 kts 240°
2026-05-05 16:49 33.59970 -84.55686 5181 ft 256 kts 240°
2026-05-05 16:49 33.59016 -84.57476 5970 ft 257 kts 222°
2026-05-05 16:49 33.57435 -84.58433 6670 ft 261 kts 189°
2026-05-05 16:50 33.55603 -84.58531 7360 ft 267 kts 182°
2026-05-05 16:50 33.54344 -84.58531 7863 ft 270 kts 182°
2026-05-05 16:50 33.52450 -84.58512 8592 ft 274 kts 181°
2026-05-05 16:50 33.50532 -84.58487 9314 ft 278 kts 181°
2026-05-05 16:51 33.48616 -84.58275 9992 ft 286 kts 165°
2026-05-05 16:51 33.46861 -84.57045 10567 ft 297 kts 135°
2026-05-05 16:51 33.45754 -84.54868 10807 ft 322 kts 107°
2026-05-05 16:51 33.45447 -84.52179 11011 ft 341 kts 94°
2026-05-05 16:52 33.45400 -84.49249 11508 ft 350 kts 90°
2026-05-05 16:52 33.45454 -84.46362 12137 ft 354 kts 88°
2026-05-05 16:52 33.45530 -84.43400 12797 ft 358 kts 88°
2026-05-05 16:52 33.45586 -84.40401 13446 ft 362 kts 89°
2026-05-05 16:53 33.45612 -84.37364 14099 ft 366 kts 89°
2026-05-05 16:53 33.45615 -84.34300 14651 ft 370 kts 89°
2026-05-05 16:53 33.45793 -84.31209 15200 ft 374 kts 84°
2026-05-05 16:53 33.46033 -84.28109 15732 ft 378 kts 84°
2026-05-05 16:54 33.46279 -84.24941 16316 ft 381 kts 83°
2026-05-05 16:54 33.46527 -84.21764 16872 ft 385 kts 83°
2026-05-05 16:54 33.46781 -84.18546 17430 ft 389 kts 83°
2026-05-05 16:54 33.47038 -84.15304 17977 ft 393 kts 83°
2026-05-05 16:55 33.47296 -84.12033 18508 ft 397 kts 83°
2026-05-05 16:55 33.47558 -84.08725 18961 ft 401 kts 83°
2026-05-05 16:55 33.47820 -84.05391 19401 ft 405 kts 83°
2026-05-05 16:55 33.48085 -84.02018 19843 ft 409 kts 83°
2026-05-05 16:56 33.48353 -83.98611 20291 ft 413 kts 83°
2026-05-05 16:56 33.48622 -83.95178 20718 ft 417 kts 82°
2026-05-05 16:56 33.48892 -83.91703 21144 ft 421 kts 82°
2026-05-05 16:56 33.49161 -83.88206 21629 ft 423 kts 83°
2026-05-05 16:57 33.49428 -83.84680 22092 ft 426 kts 83°
2026-05-05 16:57 33.49696 -83.81133 22511 ft 429 kts 83°
2026-05-05 16:57 33.49968 -83.77557 22923 ft 433 kts 83°
2026-05-05 16:57 33.50239 -83.73953 23327 ft 437 kts 83°
2026-05-05 16:58 33.50510 -83.70313 23715 ft 441 kts 83°
2026-05-05 16:58 33.50785 -83.66640 24045 ft 444 kts 82°
2026-05-05 16:58 33.51074 -83.62950 24375 ft 446 kts 81°
2026-05-05 16:58 33.51475 -83.59255 24711 ft 448 kts 78°
2026-05-05 16:59 33.51982 -83.55560 25052 ft 450 kts 77°
2026-05-05 16:59 33.52550 -83.51852 25383 ft 453 kts 75°
2026-05-05 16:59 33.53135 -83.48127 25699 ft 456 kts 75°
2026-05-05 16:59 33.53708 -83.44388 26007 ft 459 kts 75°
2026-05-05 17:00 33.54265 -83.40596 26340 ft 462 kts 76°
2026-05-05 17:00 33.54798 -83.36792 26662 ft 465 kts 76°
2026-05-05 17:00 33.55317 -83.32948 26979 ft 468 kts 76°
2026-05-05 17:00 33.55830 -83.29096 27304 ft 471 kts 76°
2026-05-05 17:01 33.56350 -83.25205 27617 ft 473 kts 76°
2026-05-05 17:01 33.56876 -83.21294 27921 ft 476 kts 76°
2026-05-05 17:01 33.57409 -83.17366 28218 ft 479 kts 76°
2026-05-05 17:01 33.57948 -83.13413 28516 ft 481 kts 75°
2026-05-05 17:02 33.58491 -83.09446 28797 ft 484 kts 75°
2026-05-05 17:02 33.59034 -83.05458 29075 ft 487 kts 75°
2026-05-05 17:02 33.59581 -83.01433 29354 ft 489 kts 75°
2026-05-05 17:02 33.60127 -82.97395 29616 ft 492 kts 75°
2026-05-05 17:03 33.60674 -82.93322 29898 ft 494 kts 75°
2026-05-05 17:03 33.61217 -82.89246 30161 ft 497 kts 74°
2026-05-05 17:03 33.61759 -82.85145 30374 ft 499 kts 74°
2026-05-05 17:03 33.62295 -82.81066 30618 ft 501 kts 74°
2026-05-05 17:04 33.62838 -82.76931 30864 ft 503 kts 73°
2026-05-05 17:04 33.63384 -82.72782 31127 ft 504 kts 73°
2026-05-05 17:04 33.63936 -82.68631 31377 ft 505 kts 73°
2026-05-05 17:04 33.64493 -82.64464 31642 ft 505 kts 73°
2026-05-05 17:05 33.65045 -82.60306 31984 ft 505 kts 73°
2026-05-05 17:05 33.65588 -82.56149 32325 ft 504 kts 72°
2026-05-05 17:05 33.66124 -82.52000 32654 ft 503 kts 72°
2026-05-05 17:05 33.66660 -82.47852 32913 ft 502 kts 72°
2026-05-05 17:06 33.67197 -82.43717 33227 ft 501 kts 72°
2026-05-05 17:06 33.67737 -82.39582 33570 ft 500 kts 71°
2026-05-05 17:06 33.68272 -82.35468 33953 ft 498 kts 71°
2026-05-05 17:06 33.68800 -82.31363 34273 ft 497 kts 71°
2026-05-05 17:07 33.69323 -82.27264 34533 ft 496 kts 71°
2026-05-05 17:07 33.69836 -82.23169 34781 ft 498 kts 73°
2026-05-05 17:07 33.70008 -82.18966 35008 ft 511 kts 84°
2026-05-05 17:07 33.69595 -82.14681 35233 ft 522 kts 95°
2026-05-05 17:08 33.68570 -82.10461 35442 ft 531 kts 107°
2026-05-05 17:08 33.67081 -82.06369 35653 ft 534 kts 110°
2026-05-05 17:08 33.65560 -82.02302 35862 ft 534 kts 109°
2026-05-05 17:08 33.64041 -81.98236 36090 ft 534 kts 109°
2026-05-05 17:09 33.62525 -81.94170 36300 ft 534 kts 109°
2026-05-05 17:09 33.61009 -81.90105 36509 ft 534 kts 109°
2026-05-05 17:09 33.59493 -81.86044 36724 ft 534 kts 110°
2026-05-05 17:09 33.57977 -81.81985 36920 ft 533 kts 110°
2026-05-05 17:10 33.56460 -81.77928 37090 ft 533 kts 110°
2026-05-05 17:10 33.54944 -81.73883 37128 ft 530 kts 110°